| time (UTC) | temp C | wind direction | speed KPH | gust KPH | rain 1hr cm | rain 24hr cm | rain mn cm | humidity % | barometer mb |
| 20260506225901 | 27 | 349 | 11.3 | 11.3 | 0.00 | 0.00 | 0.00 | 92 | 1008.0 |
| 20260506225359 | 27 | 351 | 11.3 | 12.9 | 0.00 | 0.00 | 0.00 | 92 | 1008.1 |
| 20260506224855 | 27 | 358 | 11.3 | 11.3 | 0.00 | 0.00 | 0.00 | 92 | 1007.8 |
| 20260506224353 | 27 | 356 | 9.7 | 9.7 | 0.00 | 0.00 | 0.00 | 92 | 1007.8 |
| 20260506223849 | 27 | 4 | 8.0 | 9.7 | 0.00 | 0.00 | 0.00 | 92 | 1008.0 |
| 20260506223344 | 27 | 9 | 9.7 | 9.7 | 0.00 | 0.00 | 0.00 | 92 | 1008.0 |
| 20260506222842 | 27 | 4 | 8.0 | 9.7 | 0.00 | 0.00 | 0.00 | 91 | 1007.9 |
| 20260506222337 | 27 | 11 | 8.0 | 9.7 | 0.00 | 0.00 | 0.00 | 92 | 1008.0 |
| 20260506221835 | 27 | 0 | 9.7 | 11.3 | 0.00 | 0.00 | 0.00 | 92 | 1008.0 |
| 20260506221332 | 27 | 356 | 9.7 | 11.3 | 0.00 | 0.00 | 0.00 | 92 | 1007.8 |
| 20260506220830 | 27 | 0 | 9.7 | 11.3 | 0.00 | 0.00 | 0.00 | 92 | 1007.8 |
| 20260506220325 | 27 | 3 | 11.3 | 11.3 | 0.00 | 0.00 | 0.00 | 92 | 1007.9 |
| 20260506215822 | 27 | 350 | 9.7 | 11.3 | 0.00 | 0.00 | 0.00 | 92 | 1007.8 |
| 20260506215318 | 27 | 356 | 9.7 | 11.3 | 0.00 | 0.00 | 0.00 | 92 | 1007.6 |
| 20260506214814 | 27 | 352 | 9.7 | 11.3 | 0.00 | 0.00 | 0.00 | 91 | 1007.6 |
| 20260506214311 | 27 | 1 | 9.7 | 9.7 | 0.00 | 0.00 | 0.00 | 91 | 1007.7 |
| 20260506213809 | 27 | 11 | 8.0 | 9.7 | 0.00 | 0.00 | 0.00 | 91 | 1007.6 |
| 20260506213306 | 27 | 9 | 8.0 | 9.7 | 0.00 | 0.00 | 0.00 | 91 | 1007.6 |
| 20260506212804 | 27 | 6 | 9.7 | 11.3 | 0.00 | 0.00 | 0.00 | 91 | 1007.7 |
| 20260506212259 | 27 | 350 | 11.3 | 12.9 | 0.00 | 0.00 | 0.00 | 92 | 1007.4 |
| 20260506211754 | 27 | 357 | 11.3 | 11.3 | 0.00 | 0.00 | 0.00 | 92 | 1007.5 |
| 20260506211251 | 27 | 6 | 9.7 | 9.7 | 0.00 | 0.00 | 0.00 | 92 | 1007.3 |
| 20260506210748 | 27 | 8 | 8.0 | 9.7 | 0.00 | 0.00 | 0.00 | 92 | 1007.3 |
| 20260506210245 | 27 | 354 | 9.7 | 11.3 | 0.00 | 0.00 | 0.00 | 92 | 1007.3 |
| 20260506205742 | 27 | 346 | 11.3 | 12.9 | 0.00 | 0.00 | 0.00 | 92 | 1007.3 |
| 20260506205237 | 27 | 342 | 12.9 | 14.5 | 0.00 | 0.00 | 0.00 | 92 | 1007.4 |
| 20260506204734 | 27 | 350 | 11.3 | 12.9 | 0.00 | 0.00 | 0.00 | 92 | 1007.6 |
| 20260506204232 | 27 | 346 | 11.3 | 12.9 | 0.00 | 0.00 | 0.00 | 91 | 1007.5 |
| 20260506203731 | 27 | 353 | 9.7 | 11.3 | 0.00 | 0.00 | 0.00 | 91 | 1007.4 |
| 20260506203227 | 27 | 1 | 9.7 | 9.7 | 0.00 | 0.00 | 0.00 | 91 | 1007.5 |
| 20260506202725 | 27 | 9 | 8.0 | 9.7 | 0.00 | 0.00 | 0.00 | 91 | 1007.3 |
| 20260506202221 | 27 | 17 | 8.0 | 9.7 | 0.00 | 0.00 | 0.00 | 91 | 1007.4 |
| 20260506201718 | 27 | 8 | 8.0 | 9.7 | 0.00 | 0.00 | 0.00 | 91 | 1007.5 |
| 20260506201215 | 27 | 3 | 8.0 | 9.7 | 0.00 | 0.00 | 0.00 | 91 | 1007.6 |
| 20260506200711 | 27 | 0 | 9.7 | 11.3 | 0.00 | 0.00 | 0.00 | 91 | 1007.3 |
| 20260506200208 | 27 | 359 | 9.7 | 11.3 | 0.00 | 0.00 | 0.00 | 91 | 1007.4 |
| 20260506195704 | 27 | 8 | 8.0 | 11.3 | 0.00 | 0.00 | 0.00 | 92 | 1007.6 |
| 20260506195201 | 27 | 6 | 9.7 | 11.3 | 0.00 | 0.00 | 0.00 | 92 | 1007.4 |
| 20260506194658 | 27 | 347 | 9.7 | 11.3 | 0.00 | 0.00 | 0.00 | 92 | 1007.6 |
| 20260506194154 | 27 | 349 | 11.3 | 12.9 | 0.00 | 0.00 | 0.00 | 92 | 1007.8 |
| 20260506193652 | 27 | 353 | 11.3 | 12.9 | 0.00 | 0.00 | 0.00 | 91 | 1007.7 |
| 20260506193149 | 27 | 358 | 11.3 | 12.9 | 0.00 | 0.00 | 0.00 | 92 | 1007.6 |
| 20260506192646 | 27 | 359 | 9.7 | 9.7 | 0.00 | 0.00 | 0.00 | 92 | 1007.6 |
| 20260506192142 | 27 | 359 | 9.7 | 11.3 | 0.00 | 0.00 | 0.00 | 92 | 1007.7 |
| 20260506191639 | 27 | 0 | 9.7 | 11.3 | 0.00 | 0.00 | 0.00 | 91 | 1007.8 |
| 20260506191135 | 28 | 0 | 9.7 | 9.7 | 0.00 | 0.00 | 0.00 | 90 | 1007.9 |
| 20260506190632 | 28 | 5 | 8.0 | 9.7 | 0.00 | 0.00 | 0.00 | 90 | 1007.7 |
| 20260506190129 | 28 | 9 | 9.7 | 9.7 | 0.00 | 0.00 | 0.00 | 90 | 1007.9 |
| 20260506185626 | 28 | 15 | 9.7 | 9.7 | 0.00 | 0.00 | 0.00 | 90 | 1007.8 |
| 20260506185122 | 28 | 15 | 8.0 | 9.7 | 0.00 | 0.00 | 0.00 | 90 | 1008.0 |
| 20260506184620 | 28 | 14 | 9.7 | 9.7 | 0.00 | 0.00 | 0.00 | 90 | 1008.1 |
| 20260506184117 | 27 | 13 | 9.7 | 9.7 | 0.00 | 0.00 | 0.00 | 90 | 1008.1 |
| 20260506183614 | 27 | 7 | 9.7 | 9.7 | 0.00 | 0.00 | 0.00 | 90 | 1008.3 |
| 20260506183109 | 27 | 3 | 8.0 | 9.7 | 0.00 | 0.00 | 0.00 | 90 | 1008.3 |
| 20260506182607 | 27 | 7 | 9.7 | 9.7 | 0.00 | 0.00 | 0.00 | 90 | 1008.3 |
| 20260506182104 | 27 | 6 | 9.7 | 9.7 | 0.00 | 0.00 | 0.00 | 90 | 1008.6 |
| 20260506181602 | 27 | 6 | 9.7 | 9.7 | 0.00 | 0.00 | 0.00 | 90 | 1008.4 |
| 20260506181059 | 27 | 1 | 8.0 | 9.7 | 0.00 | 0.00 | 0.00 | 90 | 1008.5 |
| 20260506180555 | 27 | 3 | 9.7 | 11.3 | 0.00 | 0.00 | 0.00 | 90 | 1008.6 |
| 20260506180052 | 27 | 9 | 9.7 | 9.7 | 0.00 | 0.00 | 0.00 | 90 | 1008.7 |
| 20260506175548 | 27 | 6 | 9.7 | 11.3 | 0.00 | 0.00 | 0.00 | 90 | 1008.9 |
| 20260506175044 | 27 | 1 | 11.3 | 12.9 | 0.00 | 0.00 | 0.00 | 90 | 1008.7 |
| 20260506174544 | 27 | 356 | 9.7 | 11.3 | 0.00 | 0.00 | 0.00 | 90 | 1008.8 |
| 20260506174039 | 27 | 356 | 11.3 | 11.3 | 0.00 | 0.00 | 0.00 | 90 | 1008.8 |
| 20260506173537 | 27 | 12 | 9.7 | 11.3 | 0.00 | 0.00 | 0.00 | 90 | 1009.1 |
| 20260506173034 | 27 | 349 | 9.7 | 11.3 | 0.00 | 0.00 | 0.00 | 90 | 1009.1 |
| 20260506172531 | 27 | 3 | 9.7 | 11.3 | 0.00 | 0.00 | 0.00 | 90 | 1009.4 |
| 20260506172027 | 28 | 0 | 9.7 | 11.3 | 0.00 | 0.00 | 0.00 | 90 | 1009.3 |
| 20260506171525 | 28 | 11 | 9.7 | 9.7 | 0.00 | 0.00 | 0.00 | 90 | 1009.3 |
| 20260506171022 | 28 | 22 | 8.0 | 9.7 | 0.00 | 0.00 | 0.00 | 91 | 1009.3 |
| 20260506170520 | 27 | 3 | 9.7 | 9.7 | 0.00 | 0.00 | 0.00 | 91 | 1009.3 |
| 20260506170017 | 27 | 344 | 9.7 | 11.3 | 0.00 | 0.00 | 0.00 | 91 | 1009.4 |
| 20260506165516 | 27 | 353 | 11.3 | 11.3 | 0.00 | 0.00 | 0.00 | 91 | 1009.5 |
| 20260506165011 | 27 | 349 | 11.3 | 12.9 | 0.00 | 0.00 | 0.00 | 91 | 1009.5 |
| 20260506164508 | 28 | 343 | 14.5 | 16.1 | 0.00 | 0.00 | 0.00 | 90 | 1009.6 |
| 20260506164006 | 28 | 347 | 11.3 | 12.9 | 0.00 | 0.00 | 0.00 | 89 | 1009.6 |
| 20260506163501 | 28 | 346 | 12.9 | 14.5 | 0.00 | 0.00 | 0.00 | 88 | 1009.6 |
| 20260506162956 | 28 | 351 | 9.7 | 12.9 | 0.00 | 0.00 | 0.00 | 89 | 1009.6 |
| 20260506162454 | 28 | 341 | 12.9 | 14.5 | 0.00 | 0.00 | 0.00 | 89 | 1009.7 |
| 20260506161945 | 28 | 354 | 9.7 | 11.3 | 0.00 | 0.00 | 0.00 | 89 | 1009.7 |
| 20260506161443 | 28 | 352 | 9.7 | 11.3 | 0.00 | 0.00 | 0.00 | 89 | 1009.8 |
| 20260506160935 | 28 | 2 | 8.0 | 11.3 | 0.00 | 0.00 | 0.00 | 88 | 1009.7 |
| 20260506160432 | 28 | 9 | 8.0 | 9.7 | 0.00 | 0.00 | 0.00 | 87 | 1009.7 |
| 20260506155929 | 28 | 356 | 9.7 | 11.3 | 0.00 | 0.00 | 0.00 | 87 | 1009.9 |
| 20260506155426 | 28 | 356 | 9.7 | 11.3 | 0.00 | 0.00 | 0.00 | 86 | 1009.7 |
| 20260506153548 | 28 | 0 | 9.7 | 11.3 | 0.00 | 0.00 | 0.00 | 86 | 1009.7 |
| 20260506153046 | 28 | 359 | 9.7 | 9.7 | 0.00 | 0.00 | 0.00 | 87 | 1009.9 |
| 20260506152543 | 28 | 10 | 9.7 | 9.7 | 0.00 | 0.00 | 0.00 | 86 | 1009.9 |
| 20260506152041 | 28 | 357 | 9.7 | 12.9 | 0.00 | 0.00 | 0.00 | 86 | 1009.6 |
| 20260506151538 | 28 | 358 | 9.7 | 11.3 | 0.00 | 0.00 | 0.00 | 86 | 1009.8 |
| 20260506151035 | 28 | 347 | 11.3 | 12.9 | 0.00 | 0.00 | 0.00 | 85 | 1009.9 |
| 20260506150532 | 28 | 345 | 11.3 | 12.9 | 0.00 | 0.00 | 0.00 | 85 | 1009.7 |
| 20260506150029 | 28 | 351 | 9.7 | 11.3 | 0.00 | 0.00 | 0.00 | 84 | 1009.7 |
| 20260506145525 | 28 | 356 | 9.7 | 11.3 | 0.00 | 0.00 | 0.00 | 85 | 1009.9 |
| 20260506145023 | 28 | 1 | 9.7 | 11.3 | 0.00 | 0.00 | 0.00 | 85 | 1009.7 |
| 20260506144519 | 28 | 357 | 8.0 | 11.3 | 0.00 | 0.00 | 0.00 | 85 | 1009.7 |
| 20260506144017 | 28 | 358 | 9.7 | 11.3 | 0.00 | 0.00 | 0.00 | 85 | 1009.8 |
| 20260506143514 | 28 | 356 | 9.7 | 11.3 | 0.00 | 0.00 | 0.00 | 85 | 1009.9 |
| 20260506143013 | 28 | 2 | 9.7 | 9.7 | 0.00 | 0.00 | 0.00 | 85 | 1009.7 |
| 20260506142510 | 28 | 5 | 8.0 | 9.7 | 0.00 | 0.00 | 0.00 | 85 | 1009.5 |
| 20260506142008 | 28 | 3 | 9.7 | 11.3 | 0.00 | 0.00 | 0.00 | 85 | 1009.5 |
| 20260506141506 | 28 | 4 | 9.7 | 11.3 | 0.00 | 0.00 | 0.00 | 85 | 1009.3 |
| 20260506141004 | 28 | 0 | 8.0 | 11.3 | 0.00 | 0.00 | 0.00 | 85 | 1009.4 |
| 20260506140501 | 28 | 10 | 8.0 | 9.7 | 0.00 | 0.00 | 0.00 | 84 | 1009.1 |
| 20260506135957 | 28 | 6 | 9.7 | 9.7 | 0.00 | 0.00 | 0.00 | 84 | 1009.2 |
| 20260506135455 | 28 | 5 | 8.0 | 9.7 | 0.00 | 0.00 | 0.00 | 84 | 1009.2 |
| 20260506134951 | 28 | 6 | 8.0 | 9.7 | 0.00 | 0.00 | 0.00 | 84 | 1008.9 |
| 20260506134447 | 28 | 357 | 9.7 | 11.3 | 0.00 | 0.00 | 0.00 | 84 | 1008.9 |
| 20260506133943 | 28 | 0 | 9.7 | 11.3 | 0.00 | 0.00 | 0.00 | 83 | 1008.8 |
| 20260506133441 | 28 | 3 | 8.0 | 9.7 | 0.00 | 0.00 | 0.00 | 84 | 1008.9 |
| 20260506132937 | 28 | 1 | 9.7 | 11.3 | 0.00 | 0.00 | 0.00 | 84 | 1008.8 |
| 20260506132435 | 28 | 2 | 9.7 | 11.3 | 0.00 | 0.00 | 0.00 | 84 | 1008.6 |
| 20260506131932 | 28 | 355 | 11.3 | 11.3 | 0.00 | 0.00 | 0.00 | 85 | 1008.5 |
| 20260506131428 | 28 | 357 | 9.7 | 11.3 | 0.00 | 0.00 | 0.00 | 85 | 1008.6 |
| 20260506130925 | 28 | 349 | 9.7 | 11.3 | 0.00 | 0.00 | 0.00 | 84 | 1008.3 |
| 20260506130422 | 28 | 2 | 11.3 | 11.3 | 0.00 | 0.00 | 0.00 | 82 | 1008.4 |
| 20260506125920 | 28 | 359 | 9.7 | 9.7 | 0.00 | 0.00 | 0.00 | 82 | 1008.4 |
| 20260506125418 | 28 | 10 | 9.7 | 9.7 | 0.00 | 0.00 | 0.00 | 82 | 1008.5 |
| 20260506124916 | 28 | 356 | 8.0 | 9.7 | 0.00 | 0.00 | 0.00 | 82 | 1008.5 |
| 20260506124413 | 28 | 5 | 9.7 | 9.7 | 0.00 | 0.00 | 0.00 | 82 | 1008.7 |
| 20260506123911 | 28 | 0 | 9.7 | 9.7 | 0.00 | 0.00 | 0.00 | 82 | 1008.4 |
| 20260506123409 | 28 | 7 | 9.7 | 11.3 | 0.00 | 0.00 | 0.00 | 81 | 1008.4 |
| 20260506122906 | 28 | 359 | 11.3 | 12.9 | 0.00 | 0.00 | 0.00 | 82 | 1008.4 |
| 20260506122402 | 28 | 351 | 9.7 | 9.7 | 0.00 | 0.00 | 0.00 | 83 | 1008.4 |
| 20260506121901 | 28 | 6 | 9.7 | 11.3 | 0.00 | 0.00 | 0.00 | 82 | 1008.5 |
| 20260506121357 | 28 | 13 | 9.7 | 9.7 | 0.00 | 0.00 | 0.00 | 82 | 1008.4 |
| 20260506120854 | 28 | 0 | 8.0 | 12.9 | 0.00 | 0.00 | 0.00 | 83 | 1008.2 |
| 20260506120352 | 28 | 13 | 9.7 | 9.7 | 0.00 | 0.00 | 0.00 | 82 | 1008.0 |
| 20260506115849 | 28 | 9 | 8.0 | 11.3 | 0.00 | 0.00 | 0.00 | 82 | 1008.0 |
| 20260506115347 | 28 | 2 | 8.0 | 9.7 | 0.00 | 0.00 | 0.00 | 82 | 1007.9 |
| 20260506114845 | 28 | 4 | 9.7 | 11.3 | 0.00 | 0.00 | 0.00 | 82 | 1008.0 |
| 20260506114342 | 28 | 3 | 9.7 | 9.7 | 0.00 | 0.00 | 0.00 | 81 | 1007.7 |
| 20260506113841 | 28 | 7 | 8.0 | 11.3 | 0.00 | 0.00 | 0.00 | 81 | 1007.9 |
| 20260506113338 | 28 | 7 | 9.7 | 9.7 | 0.00 | 0.00 | 0.00 | 82 | 1007.9 |
| 20260506112835 | 29 | 8 | 8.0 | 9.7 | 0.00 | 0.00 | 0.00 | 82 | 1007.7 |
| 20260506112332 | 28 | 11 | 8.0 | 9.7 | 0.00 | 0.00 | 0.00 | 82 | 1007.8 |
| 20260506111829 | 29 | 13 | 9.7 | 9.7 | 0.00 | 0.00 | 0.00 | 83 | 1007.6 |
| 20260506111328 | 28 | 7 | 8.0 | 9.7 | 0.00 | 0.00 | 0.00 | 83 | 1007.7 |
| 20260506110825 | 28 | 6 | 8.0 | 9.7 | 0.00 | 0.00 | 0.00 | 82 | 1007.4 |
| 20260506110322 | 29 | 4 | 8.0 | 9.7 | 0.00 | 0.00 | 0.00 | 83 | 1007.5 |
| 20260506105819 | 29 | 14 | 8.0 | 9.7 | 0.00 | 0.00 | 0.00 | 83 | 1007.3 |
| 20260506105315 | 29 | 16 | 8.0 | 9.7 | 0.00 | 0.00 | 0.00 | 83 | 1007.4 |
| 20260506104812 | 29 | 14 | 8.0 | 9.7 | 0.00 | 0.00 | 0.00 | 83 | 1007.2 |
| 20260506104310 | 29 | 6 | 8.0 | 9.7 | 0.00 | 0.00 | 0.00 | 83 | 1007.3 |
| 20260506103808 | 29 | 14 | 8.0 | 9.7 | 0.00 | 0.00 | 0.00 | 83 | 1007.1 |
| 20260506103305 | 28 | 16 | 9.7 | 9.7 | 0.00 | 0.00 | 0.00 | 83 | 1007.1 |
| 20260506102802 | 28 | 13 | 9.7 | 9.7 | 0.00 | 0.00 | 0.00 | 83 | 1006.9 |
| 20260506102300 | 28 | 1 | 8.0 | 11.3 | 0.00 | 0.00 | 0.00 | 84 | 1007.0 |
| 20260506101757 | 28 | 357 | 11.3 | 11.3 | 0.00 | 0.00 | 0.00 | 83 | 1007.0 |
| 20260506101253 | 28 | 7 | 8.0 | 9.7 | 0.00 | 0.00 | 0.00 | 83 | 1007.1 |
| 20260506100751 | 28 | 0 | 9.7 | 12.9 | 0.00 | 0.00 | 0.00 | 83 | 1007.0 |
| 20260506100249 | 28 | 351 | 11.3 | 12.9 | 0.00 | 0.00 | 0.00 | 83 | 1007.2 |
| 20260506095748 | 28 | 2 | 8.0 | 11.3 | 0.00 | 0.00 | 0.00 | 83 | 1007.0 |
| 20260506095244 | 28 | 1 | 9.7 | 9.7 | 0.00 | 0.00 | 0.00 | 83 | 1007.1 |
| 20260506094740 | 28 | 353 | 9.7 | 12.9 | 0.00 | 0.00 | 0.00 | 84 | 1007.2 |
| 20260506094239 | 28 | 354 | 9.7 | 12.9 | 0.00 | 0.00 | 0.00 | 84 | 1007.3 |
| 20260506093737 | 28 | 342 | 11.3 | 14.5 | 0.00 | 0.00 | 0.00 | 84 | 1007.5 |
| 20260506093234 | 28 | 351 | 11.3 | 12.9 | 0.00 | 0.00 | 0.00 | 84 | 1007.5 |
| 20260506092732 | 29 | 10 | 8.0 | 9.7 | 0.00 | 0.00 | 0.00 | 83 | 1007.4 |
| 20260506092230 | 28 | 21 | 8.0 | 9.7 | 0.00 | 0.00 | 0.00 | 83 | 1007.4 |
| 20260506091727 | 28 | 14 | 8.0 | 9.7 | 0.00 | 0.00 | 0.00 | 84 | 1007.4 |
| 20260506091224 | 28 | 344 | 9.7 | 11.3 | 0.00 | 0.00 | 0.00 | 84 | 1007.3 |
| 20260506090721 | 28 | 345 | 12.9 | 16.1 | 0.00 | 0.00 | 0.00 | 85 | 1007.2 |
| 20260506090218 | 28 | 349 | 11.3 | 12.9 | 0.00 | 0.00 | 0.00 | 84 | 1007.1 |
| 20260506085715 | 28 | 352 | 11.3 | 12.9 | 0.00 | 0.00 | 0.00 | 85 | 1007.2 |
| 20260506085211 | 28 | 336 | 14.5 | 14.5 | 0.00 | 0.00 | 0.00 | 86 | 1007.3 |
| 20260506084708 | 28 | 340 | 12.9 | 14.5 | 0.00 | 0.00 | 0.00 | 87 | 1007.4 |
| 20260506084204 | 27 | 347 | 11.3 | 14.5 | 0.00 | 0.00 | 0.00 | 88 | 1007.2 |
| 20260506083701 | 27 | 340 | 14.5 | 17.7 | 0.00 | 0.00 | 0.00 | 88 | 1007.4 |
| 20260506083159 | 28 | 339 | 16.1 | 16.1 | 0.00 | 0.00 | 0.00 | 88 | 1007.3 |
| 20260506082656 | 27 | 332 | 14.5 | 19.3 | 0.00 | 0.00 | 0.00 | 88 | 1007.2 |
| 20260506082156 | 28 | 338 | 14.5 | 17.7 | 0.00 | 0.00 | 0.00 | 87 | 1007.4 |
| 20260506081655 | 28 | 331 | 14.5 | 17.7 | 0.00 | 0.00 | 0.00 | 87 | 1007.4 |
| 20260506081152 | 28 | 350 | 12.9 | 16.1 | 0.00 | 0.00 | 0.00 | 86 | 1007.4 |
| 20260506080650 | 28 | 344 | 14.5 | 16.1 | 0.00 | 0.00 | 0.00 | 87 | 1007.0 |
| 20260506080146 | 28 | 331 | 19.3 | 27.4 | 0.00 | 0.00 | 0.00 | 86 | 1007.5 |
| 20260506073130 | 30 | 13 | 8.0 | 9.7 | 0.00 | 0.00 | 0.00 | 76 | 1007.6 |
| 20260506072627 | 30 | 21 | 9.7 | 9.7 | 0.00 | 0.00 | 0.00 | 76 | 1007.7 |
| 20260506072125 | 30 | 10 | 8.0 | 9.7 | 0.00 | 0.00 | 0.00 | 75 | 1007.6 |
| 20260506071622 | 30 | 0 | 9.7 | 11.3 | 0.00 | 0.00 | 0.00 | 74 | 1007.6 |
| 20260506071120 | 30 | 13 | 9.7 | 9.7 | 0.00 | 0.00 | 0.00 | 77 | 1007.5 |
| 20260506070616 | 30 | 18 | 9.7 | 11.3 | 0.00 | 0.00 | 0.00 | 77 | 1007.7 |
| 20260506070114 | 30 | 15 | 9.7 | 9.7 | 0.00 | 0.00 | 0.00 | 79 | 1007.8 |
| 20260506062051 | 30 | 14 | 9.7 | 11.3 | 0.00 | 0.00 | 0.00 | 75 | 1007.6 |
| 20260506061546 | 30 | 8 | 8.0 | 9.7 | 0.00 | 0.00 | 0.00 | 75 | 1007.9 |
| 20260506061044 | 30 | 6 | 8.0 | 9.7 | 0.00 | 0.00 | 0.00 | 75 | 1007.9 |
| 20260506060543 | 30 | 7 | 8.0 | 11.3 | 0.00 | 0.00 | 0.00 | 75 | 1008.1 |
| 20260506051011 | 31 | 354 | 9.7 | 12.9 | 0.00 | 0.00 | 0.00 | 73 | 1008.9 |
| 20260506050509 | 30 | 4 | 8.0 | 9.7 | 0.00 | 0.00 | 0.00 | 76 | 1009.1 |
| 20260506045000 | 30 | 12 | 8.0 | 11.3 | 0.00 | 0.00 | 0.00 | 78 | 1009.0 |
| 20260506044458 | 30 | 4 | 9.7 | 9.7 | 0.00 | 0.00 | 0.00 | 79 | 1009.2 |
| 20260506043954 | 31 | 4 | 9.7 | 11.3 | 0.00 | 0.00 | 0.00 | 78 | 1009.3 |
| 20260506043451 | 31 | 12 | 9.7 | 11.3 | 0.00 | 0.00 | 0.00 | 77 | 1009.4 |
| 20260506042949 | 31 | 8 | 8.0 | 11.3 | 0.00 | 0.00 | 0.00 | 74 | 1009.5 |
| 20260506042448 | 31 | 9 | 8.0 | 9.7 | 0.00 | 0.00 | 0.00 | 74 | 1009.5 |
| 20260506041946 | 31 | 16 | 8.0 | 12.9 | 0.00 | 0.00 | 0.00 | 73 | 1009.7 |
| 20260506041444 | 31 | 353 | 9.7 | 11.3 | 0.00 | 0.00 | 0.00 | 73 | 1009.9 |
| 20260506040941 | 31 | 7 | 8.0 | 12.9 | 0.00 | 0.00 | 0.00 | 72 | 1010.1 |
| 20260506040438 | 31 | 10 | 8.0 | 11.3 | 0.00 | 0.00 | 0.00 | 73 | 1010.0 |
| 20260506035934 | 30 | 11 | 9.7 | 11.3 | 0.00 | 0.00 | 0.00 | 73 | 1009.8 |
| 20260506035432 | 31 | 13 | 9.7 | 9.7 | 0.00 | 0.00 | 0.00 | 74 | 1009.9 |
| 20260506034928 | 31 | 1 | 9.7 | 11.3 | 0.00 | 0.00 | 0.00 | 73 | 1009.9 |
| 20260506034426 | 31 | 357 | 9.7 | 16.1 | 0.00 | 0.00 | 0.00 | 72 | 1010.0 |
| 20260506033923 | 31 | 13 | 8.0 | 9.7 | 0.00 | 0.00 | 0.00 | 73 | 1010.0 |
| 20260506033420 | 30 | 15 | 9.7 | 9.7 | 0.00 | 0.00 | 0.00 | 75 | 1009.9 |
| 20260506032916 | 30 | 16 | 8.0 | 9.7 | 0.00 | 0.00 | 0.00 | 75 | 1010.0 |
| 20260506032413 | 30 | 13 | 8.0 | 9.7 | 0.00 | 0.00 | 0.00 | 73 | 1009.9 |
| 20260506031910 | 31 | 350 | 11.3 | 11.3 | 0.00 | 0.00 | 0.00 | 72 | 1009.9 |
| 20260506031408 | 30 | 13 | 8.0 | 9.7 | 0.00 | 0.00 | 0.00 | 74 | 1009.8 |
| 20260506030905 | 30 | 15 | 9.7 | 9.7 | 0.00 | 0.00 | 0.00 | 73 | 1010.0 |
| 20260506030403 | 30 | 17 | 9.7 | 9.7 | 0.00 | 0.00 | 0.00 | 74 | 1010.1 |
| 20260506025900 | 30 | 17 | 8.0 | 9.7 | 0.00 | 0.00 | 0.00 | 75 | 1010.0 |
| 20260506025356 | 30 | 352 | 9.7 | 11.3 | 0.00 | 0.00 | 0.00 | 74 | 1010.0 |
| 20260506024854 | 30 | 12 | 8.0 | 9.7 | 0.00 | 0.00 | 0.00 | 75 | 1009.8 |
| 20260506024351 | 30 | 25 | 8.0 | 9.7 | 0.00 | 0.00 | 0.00 | 76 | 1009.7 |
| 20260506023846 | 30 | 16 | 9.7 | 9.7 | 0.00 | 0.00 | 0.00 | 76 | 1009.6 |
| 20260506023343 | 30 | 3 | 8.0 | 9.7 | 0.00 | 0.00 | 0.00 | 77 | 1009.7 |
| 20260506022840 | 30 | 16 | 9.7 | 9.7 | 0.00 | 0.00 | 0.00 | 77 | 1009.5 |
| 20260506022338 | 30 | 10 | 8.0 | 9.7 | 0.00 | 0.00 | 0.00 | 77 | 1009.6 |
| 20260506021836 | 30 | 25 | 8.0 | 9.7 | 0.00 | 0.00 | 0.00 | 78 | 1009.8 |
| 20260506021332 | 30 | 11 | 8.0 | 9.7 | 0.00 | 0.00 | 0.00 | 79 | 1009.8 |
| 20260506020828 | 30 | 359 | 8.0 | 9.7 | 0.00 | 0.00 | 0.00 | 79 | 1009.7 |
| 20260506020326 | 30 | 24 | 9.7 | 9.7 | 0.00 | 0.00 | 0.00 | 81 | 1009.7 |
| 20260506015824 | 30 | 17 | 8.0 | 9.7 | 0.00 | 0.00 | 0.00 | 80 | 1009.6 |
| 20260506015321 | 30 | 9 | 9.7 | 11.3 | 0.00 | 0.00 | 0.00 | 79 | 1009.7 |
| 20260506014818 | 30 | 15 | 8.0 | 9.7 | 0.00 | 0.00 | 0.00 | 81 | 1009.6 |
| 20260506014315 | 30 | 14 | 9.7 | 11.3 | 0.00 | 0.00 | 0.00 | 82 | 1009.5 |
| 20260506013812 | 30 | 16 | 9.7 | 9.7 | 0.00 | 0.00 | 0.00 | 82 | 1009.6 |
| 20260506013309 | 30 | 8 | 9.7 | 9.7 | 0.00 | 0.00 | 0.00 | 82 | 1009.6 |
| 20260506012806 | 30 | 11 | 8.0 | 9.7 | 0.00 | 0.00 | 0.00 | 82 | 1009.7 |
| 20260506012307 | 30 | 6 | 8.0 | 9.7 | 0.00 | 0.00 | 0.00 | 82 | 1009.5 |
| 20260506011800 | 29 | 13 | 8.0 | 9.7 | 0.00 | 0.00 | 0.00 | 83 | 1009.7 |
| 20260506011256 | 29 | 6 | 9.7 | 9.7 | 0.00 | 0.00 | 0.00 | 84 | 1009.6 |
| 20260506010754 | 29 | 6 | 8.0 | 9.7 | 0.00 | 0.00 | 0.00 | 85 | 1009.3 |
| 20260506010252 | 29 | 22 | 9.7 | 9.7 | 0.00 | 0.00 | 0.00 | 86 | 1009.5 |
| 20260506005748 | 28 | 11 | 8.0 | 9.7 | 0.00 | 0.00 | 0.00 | 88 | 1009.3 |
| 20260506005245 | 28 | 12 | 8.0 | 9.7 | 0.00 | 0.00 | 0.00 | 90 | 1009.4 |
| 20260506004741 | 28 | 6 | 9.7 | 9.7 | 0.00 | 0.00 | 0.00 | 90 | 1009.3 |
| 20260506004239 | 28 | 355 | 9.7 | 9.7 | 0.00 | 0.00 | 0.00 | 91 | 1009.2 |
| 20260506003735 | 28 | 0 | 9.7 | 11.3 | 0.00 | 0.00 | 0.00 | 92 | 1009.2 |
| 20260506003231 | 28 | 351 | 11.3 | 11.3 | 0.00 | 0.00 | 0.00 | 92 | 1008.8 |
| 20260506002728 | 28 | 4 | 8.0 | 9.7 | 0.00 | 0.00 | 0.00 | 92 | 1009.0 |
| 20260506002224 | 28 | 4 | 9.7 | 9.7 | 0.00 | 0.00 | 0.00 | 92 | 1008.9 |
| 20260506001720 | 27 | 4 | 9.7 | 11.3 | 0.00 | 0.00 | 0.00 | 92 | 1008.8 |
| 20260506001217 | 27 | 354 | 9.7 | 11.3 | 0.00 | 0.00 | 0.00 | 92 | 1008.8 |
| 20260506000714 | 27 | 355 | 9.7 | 11.3 | 0.00 | 0.00 | 0.00 | 92 | 1009.0 |
| 20260506000212 | 27 | 0 | 9.7 | 11.3 | 0.00 | 0.00 | 0.00 | 92 | 1008.7 |
| 20260505235709 | 27 | 358 | 11.3 | 11.3 | 0.00 | 0.00 | 0.00 | 92 | 1008.7 |
| 20260505235207 | 27 | 352 | 9.7 | 11.3 | 0.00 | 0.00 | 0.00 | 92 | 1008.6 |
| 20260505234703 | 27 | 352 | 9.7 | 11.3 | 0.00 | 0.00 | 0.00 | 92 | 1008.3 |
| 20260505234201 | 27 | 357 | 9.7 | 11.3 | 0.00 | 0.00 | 0.00 | 93 | 1008.5 |
| 20260505233657 | 27 | 358 | 9.7 | 11.3 | 0.00 | 0.00 | 0.00 | 93 | 1008.4 |
| 20260505233155 | 27 | 6 | 9.7 | 11.3 | 0.00 | 0.00 | 0.00 | 93 | 1008.3 |
| 20260505232652 | 27 | 1 | 8.0 | 9.7 | 0.00 | 0.00 | 0.00 | 92 | 1008.3 |
| 20260505232149 | 27 | 11 | 9.7 | 9.7 | 0.00 | 0.00 | 0.00 | 92 | 1008.3 |
| 20260505231645 | 27 | 6 | 9.7 | 9.7 | 0.00 | 0.00 | 0.00 | 92 | 1008.2 |
| 20260505231145 | 27 | 8 | 8.0 | 9.7 | 0.00 | 0.00 | 0.00 | 92 | 1008.4 |
| 20260505230642 | 27 | 13 | 9.7 | 9.7 | 0.00 | 0.00 | 0.00 | 92 | 1008.2 |